117 Commits

Author SHA1 Message Date
Yurii 4e5a3e9da5 refactor: little changes 2024-12-07 23:10:50 +03:00
Yurii 5c1e967fdc refactor: improved display of sensors on Dashboard 2024-12-04 06:09:20 +03:00
Yurii 43fd095714 fix: digest auth changed to basic
Digest auth not working on ios #99
2024-12-02 06:26:03 +03:00
Yurii 1bb9b61017 feat: display sensor values on dashboard page 2024-12-01 05:26:14 +03:00
Yurii e6119dc7ee refactor: restart action improved 2024-11-15 00:55:38 +03:00
Yurii 0d71a674b6 feat: added more OT polled IDs & reformat code
* ID79 - exhaust CO2
* ID84 - exhaust fan speed
* ID85 - supply fan speed
* ID29 - solar storage temp
* ID30 - solar collector temp
* ID35 - boiler fan speed setpoint & actual
2024-11-14 23:02:46 +03:00
Yurii 34eabca64a refactor: improved web cache 2024-11-14 22:30:34 +03:00
Yurii b205f14bae refactor: impoved sensors settings page 2024-11-12 15:25:58 +03:00
Yurii 7482eb8898 refactor: added {BUILD_TIME} in path js and css files 2024-11-12 11:44:02 +03:00
Yurii 8b6e6be670 fix: display of current heating temp on dashboard 2024-11-12 11:37:09 +03:00
Yurii 636872f72d refactor: some fixes 2024-11-12 10:48:29 +03:00
Yurii c6df74f06e refactor: optimizations & fixes 2024-11-11 15:45:36 +03:00
Yurii ddc9cf7c90 fix: fix typos in settings page 2024-11-11 13:32:36 +03:00
Yurii 99d82657c0 fix: restore settings on portal fixed 2024-11-11 12:54:23 +03:00
Yurii e71f3868fd refactor: dynamic sensors 2024-11-09 17:10:26 +03:00
Yurii 467cfea449 feat: ability to use return heat carrier temp as indoor temp 2024-11-01 04:16:50 +03:00
Yurii f86857c279 feat: improved turbo mode
- added turbo factor parameter
- implemented turbo mode for PID
2024-10-31 05:22:41 +03:00
Yurii cdde3c30af chore: fix typos 2024-10-31 02:42:46 +03:00
Yurii 392242ef3e refactor: vendor list updated 2024-10-31 01:36:50 +03:00
Yurii a6e8953807 refactor: reworked emergency mode; reworked hysteresis algorithm; improved detection of connection state for MANUAL & BOILER type sensors 2024-10-31 01:36:21 +03:00
Yurii 98db62cc9e fix: fix typo 2024-10-24 05:00:52 +03:00
Yurii 3d11d13631 feat: added crash recorder and ability to save dump 2024-10-24 04:01:14 +03:00
Yurii 87b222e7bc refactor: increased the max value of dt for pid to 1800 sec 2024-10-21 21:34:53 +03:00
Yurii 7f701a74e7 feat: fault state gpio setting replaced with cascade control 2024-10-18 06:14:09 +03:00
Yurii 57cf98ca19 refactor: cosmetic changes; move maxModulation setting to opentherm section 2024-10-15 05:09:20 +03:00
Yurii 5553a13cc0 feat: added log level setting 2024-10-15 04:07:00 +03:00
Yurii a9e97c15ad refactor: more logs; improved sensor of current boiler power: added settings min & max boiler power 2024-10-15 02:10:46 +03:00
Yurii dc62f99b7d feat: added polling of min modulation and max boiler power; added sensor for current boiler power 2024-10-14 19:54:26 +03:00
Yurii 45af7a30d8 refactor: cosmetic changes; added coeff. setting for filtering numeric values 2024-10-13 21:42:33 +03:00
Yurii b0a9460257 feat: added correction coeff. settings for pressure and dhw flow rate 2024-10-11 01:29:50 +03:00
Yurii 3c69f1295e feat: added opentherm option for filtering numeric values 2024-10-10 21:08:13 +03:00
Yurii 8503ef966f fix: small fix 2024-10-05 10:27:16 +03:00
Yurii a4ee4c5224 feat: added diagnostic code polling via opentherm, added hex value for fault code and diag code 2024-10-05 10:03:14 +03:00
Yurii 7658aeaa8c feat: added opentherm option 'immergasFix' 2024-10-01 01:32:35 +03:00
Yurii 790ff5a011 feat: added Radiant to vendor list 2024-09-30 23:56:52 +03:00
Yurii c341f86e5c refactor: cosmetic changes 2024-08-22 03:33:12 +03:00
Yurii 1b2bc8e200 feat: added feat use of BLE external sensor; added events onIndoorSensorDisconnect and onOutdoorSensorDisconnect for emergency mode; added polling of rssi, humidity, battery for BLE sensors 2024-08-20 19:06:18 +03:00
Yurii d5acb44648 fix: text of action buttons fixed 2024-08-20 19:01:08 +03:00
Yurii 9250bb26f2 fix: locale detection error fixed 2024-08-19 14:45:06 +03:00
Yurii 2648918dda feat: added multilanguage for portal 2024-06-21 02:01:38 +03:00
Yurii 76979531b8 feat: added more info about the build to the portal 2024-06-15 03:03:31 +03:00
Yurii bb9b6a5f4c fix: casting types in setupForm fixed #61 2024-06-11 20:19:54 +03:00
Yurii 249d32ce35 chore: more info when scan wifi 2024-06-10 14:55:14 +03:00
Yurii 018a1c5188 fix: set ssid on portal fixed 2024-06-06 02:56:19 +03:00
Yurii a825412f37 feat: added fault state GPIO setting 2024-05-25 02:51:10 +03:00
Yurii ef083991e3 feat: added board info on portal 2024-04-23 10:30:42 +03:00
Yurii 8687e122ca feat: added native heating control by boiler; refactoring; emergency settings removed from HA 2024-04-22 08:18:59 +03:00
Yurii d35ea81080 fix: PID optimization, correction of default PID settings 2024-04-18 00:04:23 +03:00
Yurii cca8ec58b4 fix: fix radio on settings page (portal) 2024-04-16 18:58:28 +03:00
Yurii 73dddd18f0 fix: scan networks on s3 fixed 2024-04-15 02:47:42 +03:00